Regional Weather Roundup
Issued by NWS

Home | Current Version | Previous Version | Text Only | Print | Product List | Glossary On
Versions: 1 2 3 4 5 6 7 8 9 10 11 12 13 14 15 16 17 18 19 20 21 22 23 24 25 26 27 28 29 30 31 32 33 34 35 36 37 38 39 40 41 42 43 44 45 46 47 48 49 50
000
ASUS43 KDTX 200310
RWRMI
MICHIGAN HOURLY REGIONAL WEATHER ROUNDUP
NATIONAL WEATHER SERVICE DETROIT/PONTIAC MI
ISSUED BY NATIONAL WEATHER SERVICE GRAND RAPIDS MI
1000 PM EST SUN FEB 19 2017

NOTE: "FAIR" INDICATES FEW OR NO CLOUDS BELOW 12,000 FEET WITH NO
SIGNIFICANT WEATHER AND/OR OBSTRUCTION TO VISIBILITY.

MIZ047>049-052>055-059>063-066>070-074>076-081>083-200400-
SOUTHEAST LOWER MICHIGAN

CITY           SKY/WX    TMP DP  RH WIND       PRES   REMARKS
ADRIAN         PTCLDY    43  30  60 N3        30.13R
ALMA           CLOUDY    35  30  80 CALM      30.14R
ANN ARBOR      CLOUDY    37  31  78 CALM      30.13R
BAD AXE        CLEAR     30  25  83 CALM      30.17R
DETROIT CITY   CLEAR     41  32  70 NE5       30.16R
DETROIT        CLOUDY    47  33  58 E6        30.15R
FLINT          CLOUDY    34  30  85 CALM      30.15R
GROSSE ILE     CLEAR     42  34  74 NE7       30.13R
HILLSDALE      PTCLDY    41  30  65 CALM      30.12R
HOWELL         PTCLDY    40  30  67 CALM      30.13S

CITY           SKY/WX    TMP DP  RH WIND       PRES   REMARKS
JACKSON        CLOUDY    41  32  70 CALM      30.13R
LANSING        PTCLDY    40  29  64 CALM      30.14R
MASON          CLOUDY    40  34  79 CALM      30.14R
MONROE         CLOUDY    42  35  75 CALM      30.12R
MT. CLEMENS    PTCLDY    37  31  77 CALM      30.14R
PONTIAC        CLOUDY    36  30  79 E6        30.13R WCI  31
PORT HOPE        N/A     32  29  88 CALM      30.15R
PORT HURON     CLOUDY    30  30 100 CALM      30.17R
TRI CITIES     CLOUDY    35  32  88 NE7       30.16R WCI  29
YPSILANTI      CLOUDY    43  31  62 NE3       30.14R
$$
MIZ043>046-050>051-056>058-064>065-071>073-077>080-200400-
SOUTHWEST LOWER MICHIGAN

CITY           SKY/WX    TMP DP  RH WIND       PRES   REMARKS
BATTLE CREEK   CLEAR     41  29  62 CALM      30.14R
BENTON HARBOR  CLOUDY    38  29  70 CALM      30.12R
BIG RAPIDS     CLOUDY    35  28  74 CALM      30.13R
COLDWATER      CLOUDY    42  28  58 CALM      30.13R
HOLLAND        CLOUDY    37  31  78 E3        30.14R
GRAND RAPIDS   PTCLDY    42  29  59 CALM      30.13R
KALAMAZOO      CLEAR     44  23  43 CALM      30.14R
MARSHALL       PTCLDY    40  29  63 CALM      30.13R
MOUNT PLEASANT CLOUDY    35  29  79 CALM      30.14R
MUSKEGON       PTCLDY    37  31  78 CALM      30.13R
STURGIS        CLOUDY    44  28  52 N5        30.12R
$$
MIZ016>042-200400-
NORTHERN LOWER MICHIGAN

CITY           SKY/WX    TMP DP  RH WIND       PRES   REMARKS
ALPENA         PTCLDY    37  29  72 NW7       30.16R WCI  32
BEAVER ISLAND  CLOUDY    29  28  96 CALM      30.16R
BELLAIRE       PTCLDY    29  28  94 CALM      30.17R
CADILLAC       CLOUDY    37  29  74 E3        30.12S
CHARLEVOIX     PTCLDY    31  28  89 CALM      30.19R
GAYLORD        CLOUDY    34  26  72 CALM      30.14R
HOUGHTON LAKE  CLEAR     31  26  82 CALM      30.14R
MANISTEE       CLEAR     30  28  92 E5        30.14R WCI  25
OSCODA         PTCLDY    30  25  81 CALM      30.16R
PELLSTON       CLEAR     29  24  82 CALM      30.17R
TRAVERSE CITY  PTCLDY    32  29  88 CALM      30.14S
LUDINGTON      CLEAR     33  29  87 CALM      30.12S
$$
MIZ007>008-015-200400-
EASTERN UPPER MICHIGAN

CITY           SKY/WX    TMP DP  RH WIND       PRES   REMARKS
KINROSS        PTCLDY    32  29  88 N3        30.16R
MACKINAC ISLAN PTCLDY    34  28  79 N3        30.17R
NEWBERRY       PTCLDY    31  29  94 CALM      30.15R
S. S. MARIE    CLEAR     35  28  75 NW3       30.15R
$$
MIZ004>006-011>014-085-200400-
CENTRAL UPPER MICHIGAN

CITY           SKY/WX    TMP DP  RH WIND       PRES   REMARKS
MANISTIQUE     CLOUDY    30  29  97 NE3       30.14S
ESCANABA       CLOUDY    30  28  92 CALM      30.15R
MENOMINEE      CLOUDY    36  30  79 CALM      30.13R
SAWYER-GWINN   CLEAR     36  28  75 SE5       30.13R WCI  32
$$
MIZ001>003-009>011-084-200400-
WESTERN UPPER MICHIGAN

CITY           SKY/WX    TMP DP  RH WIND       PRES   REMARKS
IRON MOUNTAIN  PTCLDY    38  28  67 SE6       30.10R WCI  33
HOUGHTON       PTCLDY    33  28  81 E10       30.09S WCI  25
COPPER HARBOR    N/A     35  32  88 SW6       30.12R WCI  30
IRONWOOD       PTCLDY    46  29  51 E6        30.00S
$$

ABBREVIATIONS USED IN REMARKS
   TC - TEMPERATURE IN CELSIUS
  WCI - WIND CHILL INDEX
   HX - HEAT INDEX
  VSB - VISIBILITY





USA.gov is the U.S. government's official web portal to all federal, state and local government web resources and services.